[Date Prev][Date Next][Thread Prev][Thread Next] - [Date Index][Thread Index][Author Index]

2 Line ISS Keps 11-9



ISS
1 25544U 98067A   05312.98539693  .00020445  00000-0  13982-3 0  7161
2 25544 051.6439 238.7520 0001782 111.8307 345.7502 15.74765037398478
----
Via the sarex mailing list at AMSAT.ORG courtesy of AMSAT-NA.
To unsubscribe, send "unsubscribe sarex" to Majordomo@amsat.org



AMSAT Top AMSAT Home